Tracking 21094 objects as of 12-Aug-2020
HD Live streaming from Space Station
objects crossing your sky now
Track the most recent launched group of Starlink satellites

QUIKSCAT

Track QUIKSCAT now!
10-day predictions
QUIKSCAT is classified as:


NORAD ID: 25789
Int'l Code: 1999-034A
Perigee: 664.9 km
Apogee: 804.6 km
Inclination: 98.6 °
Period: 99.4 minutes
Semi major axis: 7105 km
RCS: 2.9895 m2 (large)
Launch date: June 20, 1999
Source: United States (US)
Launch site: AIR FORCE WESTERN TEST RANGE (AFWTR)

Detailed snapshots of the winds swirling above the world's oceans.
aabbcc
Your satellite tracking list
Your tracking list is empty




NASA's NSSDC Master Catalog

Two Line Element Set (TLE):
1 25789U 99034A   20224.86215129 -.00000006 +00000-0 +11290-4 0  9994
2 25789 098.5636 074.0467 0098346 319.1005 040.2838 14.49403287103020
Source of the keplerian elements: AFSPC